Theta_e
310 308 308 307 307 307 306 306 305 305 305 304 304 303 302 301 300 300 299 299 299 299 298 298 298 298 298 298 298 297 297 297 297 297 296 295 295 294 292 291 291 291 292 292 292 292 292 292 292 292 292 292 292 291 291 291 291 290 290 289 289 289 288 288 288 288 288 288 288 289 289 290 291 291 291 291 289 290 291 291 289 290 291 291 291
312 310 308 306 306 306 305 305 305 304 305 304 304 303 302 301 300 300 299 299 299 299 299 298 298 298 298 298 297 297 297 297 297 296 296 295 295 294 292 291 291 291 291 291 292 292 292 292 292 292 292 292 291 291 290 290 290 290 289 289 289 289 288 288 288 287 287 286 286 288 290 291 291 290 291 291 289 290 291 289 289 290 290 290 290
311 312 310 305 303 304 304 303 304 305 304 304 303 302 301 300 300 299 299 299 299 299 299 299 299 298 298 298 297 297 297 297 296 296 295 295 295 295 293 291 290 291 291 291 292 293 293 293 293 292 292 291 291 291 290 290 290 289 289 289 289 288 288 288 288 287 286 286 287 290 291 292 293 291 290 290 289 290 290 288 289 289 289 289 289
311 311 311 307 303 302 302 303 303 304 304 302 302 301 300 300 299 299 299 299 299 299 299 299 298 298 297 297 297 297 296 296 296 295 295 295 295 295 294 292 290 290 291 291 292 292 292 293 292 292 291 291 291 290 290 290 289 289 288 289 289 288 288 287 288 287 286 286 288 290 289 290 294 291 287 289 289 289 288 288 288 288 288 288 288
312 311 311 311 309 303 301 302 302 302 303 302 301 301 300 300 299 299 299 298 299 299 298 298 297 297 296 296 296 295 295 295 295 294 295 295 295 295 294 293 292 290 290 291 291 292 292 292 291 291 291 291 290 290 290 289 288 288 288 288 289 289 288 287 287 287 286 286 287 289 290 291 293 289 286 288 289 288 288 288 287 287 287 288 288
312 311 310 312 311 303 300 301 301 301 302 302 302 301 300 299 299 299 298 298 298 298 298 297 297 296 296 295 295 294 294 294 294 294 294 294 295 294 294 293 293 291 290 290 291 291 291 291 290 291 290 290 290 289 289 288 288 288 287 288 288 289 288 287 287 286 285 285 285 287 288 289 288 286 287 289 287 287 287 287 287 287 287 288 287
311 311 311 311 310 306 302 300 300 301 302 302 301 300 300 299 298 298 298 298 298 298 297 297 297 296 296 296 295 294 294 294 294 294 294 294 294 294 294 293 293 292 290 290 290 290 290 290 290 290 289 289 289 289 288 288 287 287 287 287 287 288 288 287 287 286 285 285 286 286 286 286 285 286 287 287 287 286 286 287 287 287 287 287 287
311 313 312 310 309 307 303 300 300 301 301 301 300 300 299 299 298 298 298 298 297 297 297 297 297 296 296 296 295 295 295 294 294 294 294 294 294 294 294 293 293 292 291 290 290 289 289 289 289 289 288 288 288 288 288 287 287 287 287 287 287 288 288 287 286 285 285 285 285 285 285 285 285 285 285 285 286 286 285 286 286 286 286 286 286
312 313 312 311 307 303 301 300 300 301 300 301 300 299 299 298 298 298 297 297 297 297 297 297 297 297 296 296 295 295 295 294 294 293 293 293 293 293 293 293 293 292 291 290 289 289 288 288 288 288 288 288 288 288 287 287 286 287 287 286 287 287 288 287 286 285 285 285 285 285 284 284 284 285 284 284 285 285 285 285 285 285 285 285 285
313 314 311 308 304 301 301 300 299 300 300 300 299 299 298 298 297 297 297 297 297 297 297 297 297 296 296 296 295 295 294 294 293 293 293 293 293 292 292 292 292 292 291 290 289 288 288 288 288 288 288 288 288 287 287 286 286 286 286 286 286 287 287 287 286 285 284 284 284 284 284 284 284 284 284 284 284 284 284 284 284 284 284 285 285
315 315 309 305 300 299 300 299 299 299 299 299 299 298 298 297 297 297 297 297 296 297 297 297 297 296 296 296 295 295 294 293 293 292 292 292 292 292 291 291 291 291 291 290 289 288 288 287 287 287 287 287 287 287 287 287 286 286 286 286 286 286 287 286 285 285 284 284 284 284 284 284 284 284 284 284 283 283 283 283 283 283 283 284 285
317 316 309 305 302 300 299 297 297 298 297 298 298 297 297 297 297 296 296 296 296 296 297 296 296 296 296 296 295 295 294 293 293 292 292 291 291 291 291 291 291 291 290 290 289 288 288 287 287 287 286 287 287 287 287 286 286 286 286 286 286 286 286 286 285 284 284 283 283 283 283 283 284 284 283 283 283 282 282 282 282 283 283 283 283
319 318 310 306 304 302 300 296 295 296 296 297 297 297 297 296 296 296 296 296 296 296 296 296 296 296 296 295 295 294 294 293 293 292 292 291 291 291 290 290 290 290 290 290 289 288 288 288 287 287 287 287 287 287 286 286 286 286 286 286 286 286 286 286 285 284 284 283 283 283 283 283 283 283 283 283 283 282 282 282 282 282 282 282 283
318 317 312 306 303 302 300 295 294 295 295 296 296 296 296 296 296 296 296 296 296 296 296 295 296 296 295 295 295 294 294 293 293 292 292 291 291 291 290 290 290 290 290 290 290 289 288 288 287 287 287 287 287 287 286 286 286 286 286 286 286 285 285 285 284 284 283 283 283 283 282 282 282 282 282 282 282 282 282 282 282 282 282 282 282
317 314 309 303 301 300 298 295 294 295 295 295 296 296 296 296 296 296 296 296 295 295 295 296 295 295 295 295 294 294 294 293 293 292 292 291 291 291 291 290 290 290 291 290 290 289 288 288 287 287 287 287 287 287 286 286 286 286 286 285 285 285 285 285 284 283 283 283 283 283 282 282 282 282 282 282 282 282 282 282 282 281 282 282 282
319 312 306 301 301 300 296 294 294 294 295 295 295 295 296 296 296 296 296 296 295 295 295 295 295 295 295 295 294 294 294 293 293 292 292 292 291 291 291 291 291 290 290 290 289 289 289 288 287 287 287 287 287 287 286 286 286 286 285 285 284 284 284 284 284 283 283 283 282 282 282 282 282 281 281 281 281 281 281 281 281 281 281 281 281
318 307 303 301 301 299 295 293 294 294 294 295 295 296 296 296 296 296 296 296 295 295 295 295 295 294 295 295 294 294 294 293 293 292 292 291 291 291 291 291 290 290 290 290 289 289 288 288 287 287 287 286 287 287 286 286 286 285 285 285 284 284 284 284 284 283 283 282 282 282 282 282 281 281 281 281 281 281 281 281 281 281 281 281 281
311 304 302 301 301 299 295 293 294 294 295 295 295 296 296 296 296 295 295 296 295 295 295 294 294 294 294 294 294 294 294 293 293 292 292 291 291 291 291 290 290 290 289 289 289 288 288 288 287 287 286 286 287 287 286 286 286 285 284 284 284 284 284 283 283 283 282 282 282 281 281 281 281 281 281 280 280 280 280 280 280 280 280 281 281
309 308 306 303 302 299 294 292 294 294 294 295 295 295 296 296 296 296 296 296 296 295 294 294 294 294 294 294 294 294 294 293 293 292 291 291 291 291 290 290 290 290 289 289 289 288 288 287 287 287 286 286 286 286 286 286 285 284 284 283 283 283 283 283 283 283 282 282 281 281 281 281 281 280 280 280 280 280 280 280 280 280 280 280 281
317 314 311 307 305 300 294 292 294 294 294 295 295 295 296 296 296 296 296 296 295 295 295 295 294 294 294 294 294 294 293 293 292 292 291 291 291 291 290 290 290 289 289 289 289 288 288 287 287 286 286 286 286 286 286 285 284 284 283 283 283 283 283 283 282 282 282 281 281 281 280 280 280 280 279 279 279 279 279 279 279 279 279 279 279
328 321 316 312 308 300 294 293 294 294 294 294 295 295 295 295 296 296 296 295 295 295 295 295 295 294 294 293 293 293 293 292 292 291 291 291 291 290 290 290 289 289 289 289 289 288 288 287 287 286 286 286 286 286 285 284 284 283 283 283 283 282 282 282 282 282 281 281 280 280 280 279 279 279 279 278 278 278 278 277 277 277 277 277 277
335 330 325 322 316 304 295 294 294 294 294 294 294 295 295 295 296 296 295 295 295 295 295 295 295 294 294 294 293 293 292 292 291 291 291 291 290 290 290 289 289 289 289 289 289 288 288 287 287 286 286 286 286 286 285 284 283 283 282 282 282 282 282 282 282 281 281 280 280 280 279 279 279 278 278 277 277 276 276 276 275 275 275 275 275
332 330 326 323 315 304 296 295 295 294 294 294 294 294 295 295 296 295 295 295 295 296 295 295 294 293 294 293 293 292 292 291 291 291 291 290 290 290 289 289 289 289 288 288 288 288 288 287 287 286 286 286 285 285 284 283 283 283 282 282 282 282 282 282 282 281 281 280 280 280 279 279 278 277 277 276 276 275 274 274 274 273 273 273 274
321 320 317 312 308 303 302 302 298 295 295 295 294 295 295 295 295 295 295 296 296 296 295 294 294 293 293 293 292 292 291 291 291 291 290 290 290 289 289 289 289 288 288 288 288 288 287 287 286 286 286 285 285 284 283 283 283 282 282 282 282 282 282 282 282 282 281 281 280 279 279 278 277 277 276 275 274 274 273 273 272 272 272 272 273
315 314 312 311 310 308 307 306 300 296 296 296 295 295 295 295 295 295 296 296 296 295 294 294 293 293 292 292 292 291 291 291 291 290 290 290 290 289 289 289 288 288 288 287 287 287 287 286 286 286 285 285 284 284 283 283 282 282 282 282 282 282 282 282 282 282 281 281 280 279 278 277 277 276 275 274 273 273 272 272 271 271 271 271 272
313 312 311 311 313 314 313 310 302 297 298 298 297 296 295 295 296 296 296 296 295 295 294 294 293 293 292 292 291 291 291 291 290 290 290 290 289 289 288 288 288 288 287 287 287 287 286 286 286 285 285 285 284 283 283 283 282 282 282 282 282 282 282 282 282 281 281 280 280 279 278 277 276 275 274 273 273 272 271 271 271 271 271 271 271
312 312 311 311 314 317 320 316 306 299 299 300 298 297 296 295 296 296 297 296 295 295 294 294 293 292 292 292 291 291 291 291 290 290 290 289 289 288 288 287 287 287 287 287 286 286 286 286 286 285 285 284 283 282 282 282 282 282 282 281 282 282 282 282 281 281 280 279 279 278 277 276 275 274 274 273 272 272 271 271 271 271 271 271 271
311 311 311 311 313 315 316 316 309 301 299 299 298 298 297 297 297 297 296 296 295 295 294 293 293 292 292 292 292 292 291 290 290 289 289 288 288 287 287 287 287 287 286 286 286 286 286 286 285 285 285 284 282 282 282 282 282 282 281 281 282 282 282 281 281 280 279 278 278 277 276 275 274 274 273 273 272 272 271 271 271 272 272 272 272
311 311 311 311 310 311 311 311 309 303 299 299 298 298 298 297 298 297 296 296 295 295 294 293 292 292 292 292 292 291 290 290 289 288 288 288 287 287 286 286 286 286 286 286 286 286 286 285 284 284 283 282 282 282 282 282 282 281 281 282 282 282 282 281 280 279 278 277 276 275 275 275 274 274 273 273 272 272 272 272 273 273 273 273 272
309 309 309 309 308 308 308 308 308 308 305 300 298 299 298 298 298 297 296 296 295 294 294 293 292 292 293 292 291 290 290 289 288 288 287 287 286 286 286 285 285 285 285 285 285 285 285 285 284 283 282 282 282 282 282 282 282 282 282 282 282 281 281 280 279 278 277 276 275 275 275 274 274 273 273 274 274 274 274 274 274 274 274 274 273
305 304 305 305 306 307 307 307 308 308 306 301 300 301 300 298 298 297 296 295 294 294 293 293 292 293 292 291 291 290 289 288 288 287 287 286 286 285 285 285 284 284 284 284 284 284 284 283 283 282 281 281 281 282 281 281 281 281 282 282 282 281 280 279 278 277 276 275 275 275 274 274 274 274 274 274 275 275 276 276 276 276 275 275 274
302 301 301 302 303 304 304 306 306 306 304 302 302 301 299 298 298 297 297 295 294 293 293 292 292 292 291 291 290 289 288 287 287 286 286 285 285 284 284 284 284 283 283 283 283 283 282 282 281 281 281 281 281 281 281 280 281 281 281 281 281 280 279 278 277 276 276 275 274 274 274 274 274 274 274 274 274 275 275 275 275 276 276 276 276
301 301 300 300 300 300 301 302 303 303 303 304 304 302 300 299 299 298 296 295 293 293 292 292 292 291 291 290 289 288 287 286 286 285 285 284 284 284 283 283 283 283 282 282 282 282 281 281 281 281 281 281 281 280 280 280 281 280 280 280 280 279 278 277 276 276 275 274 274 274 274 274 274 274 274 274 274 274 274 274 275 275 275 275 276
299 300 299 299 299 298 298 298 299 300 301 303 304 302 301 301 299 297 295 294 293 292 292 292 291 290 290 289 288 287 286 286 285 285 284 284 283 283 283 282 282 282 281 281 281 281 281 280 280 280 280 280 280 280 280 281 280 280 279 279 278 278 277 276 276 275 275 275 275 275 275 275 274 274 274 274 274 273 273 274 274 274 275 275 275
298 298 298 298 299 298 297 297 297 298 299 300 301 301 301 300 298 296 295 294 293 292 291 291 290 290 289 288 287 286 286 285 284 284 283 283 282 282 282 281 281 281 281 281 280 280 280 280 280 280 279 279 279 279 280 281 281 280 278 277 277 277 276 276 276 275 275 275 275 275 275 274 274 274 273 274 274 274 274 274 275 275 275 275 275
297 297 297 298 298 297 296 296 296 296 296 296 296 297 299 299 297 295 294 293 292 291 291 290 290 289 288 287 287 286 285 284 283 283 282 282 281 281 281 281 281 280 280 280 280 279 279 279 279 279 278 279 279 279 280 281 281 281 279 278 277 277 276 276 275 275 275 275 275 275 274 274 274 274 274 274 275 275 275 276 276 276 276 276 276
296 296 297 297 297 297 297 296 296 296 294 293 293 294 295 296 294 293 292 291 291 290 290 289 289 288 288 287 286 285 284 283 283 282 281 281 281 281 280 280 280 279 279 279 278 278 278 278 278 278 278 278 278 279 280 281 280 281 280 279 278 277 276 276 276 275 275 275 275 274 274 274 274 274 274 275 276 276 276 276 276 276 276 276 276
295 295 296 296 297 297 297 297 297 296 295 294 293 293 294 293 292 291 291 290 290 289 289 289 288 288 287 286 285 285 284 283 282 281 281 281 280 280 279 279 279 279 278 278 278 277 277 277 277 277 277 278 278 279 280 280 280 280 280 279 278 277 276 276 276 275 275 275 274 274 274 274 275 275 275 276 276 276 276 276 276 276 276 276 276
295 295 295 296 297 297 297 297 296 297 296 295 294 294 294 292 291 290 290 289 289 289 289 289 288 287 287 286 285 284 283 282 281 281 280 280 280 279 279 279 279 278 278 277 277 277 276 276 277 277 276 277 278 278 279 280 280 280 279 278 277 277 276 276 275 275 275 274 274 274 275 275 275 275 276 276 276 276 276 276 276 276 276 276 275
294 295 295 296 296 296 295 296 296 296 297 295 294 294 293 292 290 290 289 289 289 289 289 288 288 287 286 285 284 284 283 282 281 280 280 279 279 278 278 278 278 277 277 276 276 276 276 275 275 275 275 276 277 278 278 279 279 280 279 278 277 276 276 275 275 274 274 274 274 274 275 275 276 275 275 275 275 276 276 276 276 276 275 274 274
294 294 295 295 295 295 295 295 296 296 297 296 294 293 293 292 291 290 290 290 289 289 288 288 287 287 286 285 284 283 283 281 281 280 279 279 278 278 277 277 277 276 276 275 275 275 275 274 274 274 275 276 276 277 278 278 279 279 279 277 276 276 275 275 274 274 274 274 274 275 275 274 274 274 274 275 275 275 276 276 275 275 274 274 274
293 294 294 294 294 294 294 294 295 295 296 296 293 292 293 292 290 290 292 291 289 289 288 288 287 286 285 284 283 283 282 281 280 280 279 278 277 277 277 276 276 275 275 274 274 274 274 273 273 273 274 275 275 276 277 277 278 279 279 277 276 275 275 274 274 274 274 274 275 275 274 273 273 274 274 275 275 275 275 275 274 274 273 274 274
293 293 293 293 293 293 293 294 294 294 295 295 292 290 291 291 289 291 291 289 288 288 287 287 286 285 284 283 282 282 281 280 279 279 278 277 276 275 275 275 275 274 274 273 273 272 273 272 272 272 273 274 274 274 275 276 277 278 279 278 276 275 275 274 274 274 274 275 274 274 273 272 273 274 274 275 275 275 274 273 273 273 273 273 272
292 292 292 292 292 293 293 293 293 293 294 295 292 290 289 289 291 292 291 289 288 288 286 286 285 284 283 282 281 281 280 279 279 278 277 276 275 275 274 274 274 274 273 272 272 272 272 271 271 271 271 272 272 273 273 275 277 278 278 278 276 275 275 275 274 274 274 274 274 273 272 273 273 274 274 274 273 273 272 271 272 272 272 271 270
290 290 291 291 291 292 292 292 293 293 293 294 293 290 288 289 291 292 291 290 288 287 286 285 284 282 281 281 280 279 279 278 278 277 277 275 274 274 273 273 273 273 272 272 272 272 272 271 271 271 271 271 271 272 272 274 276 277 278 278 277 276 276 276 275 275 274 274 273 273 273 273 273 273 272 272 271 270 270 270 271 270 270 269 268
288 288 288 289 289 290 290 290 290 291 291 292 293 291 289 290 291 290 289 289 288 287 285 284 282 281 280 279 278 278 277 277 277 277 276 275 274 274 273 273 273 273 272 272 272 272 272 272 271 271 271 270 271 272 272 274 275 276 277 278 277 277 277 276 275 274 274 273 273 273 273 273 272 271 270 270 269 269 269 269 269 268 268 267 267
285 285 285 285 285 285 286 286 286 287 288 289 291 291 290 291 291 289 288 288 287 286 285 283 281 280 279 278 277 276 276 275 275 275 275 275 274 274 273 273 273 273 273 273 272 272 272 272 272 271 271 271 271 272 272 273 274 275 276 277 277 277 276 275 274 274 273 273 272 272 272 271 270 270 269 269 269 268 268 268 268 267 267 267 267
282 281 281 281 282 282 282 282 282 283 284 285 287 289 290 291 291 290 288 286 286 285 284 283 281 279 278 277 277 276 275 274 274 274 274 274 273 274 274 273 273 273 273 273 273 272 272 273 272 272 271 271 271 271 272 273 273 274 275 276 276 275 275 274 273 273 272 271 271 271 270 270 269 269 269 268 268 268 268 267 267 267 267 267 267
279 279 278 278 279 279 279 279 279 279 280 282 285 287 288 289 289 289 287 285 285 284 283 282 280 278 277 276 276 275 274 274 274 274 274 274 274 273 274 274 274 274 274 274 274 273 273 273 273 272 272 272 271 271 272 273 273 274 275 275 275 274 274 273 272 272 271 271 271 270 269 269 269 268 268 267 267 267 267 267 267 267 267 267 267
276 276 276 276 276 277 276 276 276 276 278 280 282 282 283 284 285 287 286 284 284 282 281 280 278 277 276 275 274 274 273 273 273 273 273 273 273 273 273 274 274 274 274 274 274 274 274 274 274 273 273 273 273 273 272 273 273 274 274 274 274 273 273 272 272 272 271 271 270 269 269 269 268 267 267 266 266 266 266 266 267 267 267 266 266
274 274 274 274 274 273 273 274 274 275 277 277 277 277 277 278 280 283 284 284 283 281 280 278 277 276 276 275 274 274 273 273 273 273 273 272 272 272 273 274 274 273 274 274 275 274 274 274 274 274 273 273 273 273 273 273 274 274 275 274 274 274 273 273 272 272 271 270 269 269 268 268 267 266 266 266 266 266 266 266 266 266 266 266 266
Wind_Speed
18 21 24 24 26 29 31 34 34 33 34 35 37 40 42 42 42 42 42 42 43 42 41 40 39 37 37 39 40 41 41 40 39 38 37 36 34 33 34 32 31 31 29 28 27 25 23 21 20 18 16 14 11 10 8 7 6 4 3 2 1 0 2 4 8 13 14 16 21 19 17 11 3 1 7 4 20 16 2 9 16 11 9 9 10
17 17 17 19 23 25 28 31 32 33 35 38 41 43 43 42 43 44 43 44 46 46 45 44 44 43 42 43 43 41 41 41 40 40 38 37 35 34 35 33 32 31 30 29 28 26 25 23 21 19 17 15 13 11 10 8 7 5 4 3 2 1 2 3 7 10 9 12 13 12 15 11 5 2 10 6 22 5 3 15 14 9 10 9 11
18 19 15 13 18 22 25 28 33 37 39 41 42 42 41 42 43 43 44 46 47 47 47 46 46 45 43 41 40 38 39 40 39 39 38 37 36 35 35 34 33 32 31 30 29 27 26 25 23 20 18 16 14 13 11 10 8 7 6 4 2 0 3 3 6 8 9 11 7 4 6 6 6 1 5 20 16 3 8 17 9 10 11 11 14
18 20 16 9 12 17 22 27 33 35 34 36 38 38 40 43 44 45 46 47 47 47 47 45 42 40 37 35 36 35 34 36 35 35 37 37 36 36 35 35 34 34 33 31 30 29 27 25 23 21 19 17 15 13 12 11 9 8 6 5 3 0 2 2 3 6 8 8 4 2 1 1 2 2 13 24 6 2 16 13 11 18 16 16 18
18 19 16 8 9 14 21 26 29 31 32 37 40 42 44 45 46 45 46 46 47 47 45 42 39 36 32 28 29 29 28 30 32 33 36 38 38 39 38 37 36 35 34 33 32 30 28 26 24 22 20 18 16 14 12 11 10 9 7 5 3 0 1 2 1 2 5 5 2 1 1 1 1 3 12 12 7 14 18 12 21 26 19 19 19
17 17 15 8 8 11 18 23 26 30 35 40 43 44 44 44 44 44 44 44 44 44 44 42 40 39 36 32 31 29 27 32 39 40 41 42 42 41 39 38 36 36 35 34 32 30 29 27 25 23 21 19 17 15 13 12 11 10 8 6 4 1 1 1 1 0 2 2 1 1 2 3 4 7 7 4 11 17 12 18 32 27 21 23 23
15 14 12 9 9 9 13 21 28 32 36 38 38 39 39 40 42 43 43 43 43 43 43 43 42 41 41 39 38 36 34 37 41 39 40 42 40 40 40 39 38 37 36 35 33 31 29 27 25 23 22 20 18 16 15 14 12 10 9 8 5 2 1 1 0 2 1 1 2 2 3 5 6 7 4 3 10 9 12 28 30 21 26 31 29
11 11 11 10 9 10 14 22 28 30 30 31 33 36 38 40 42 43 42 42 43 44 45 45 44 43 43 41 39 40 40 37 35 34 36 38 38 39 40 39 39 37 36 35 34 31 29 28 26 24 22 20 18 17 16 14 13 13 11 10 7 3 1 2 1 3 2 2 2 3 4 6 7 8 7 5 4 5 16 26 24 26 33 31 28
10 10 11 9 9 12 16 19 23 24 26 31 35 36 37 38 40 41 41 42 43 44 46 46 46 45 44 42 39 40 39 34 32 32 34 36 38 38 39 39 39 38 37 36 34 32 30 28 27 25 23 22 20 18 16 16 15 14 12 11 9 5 2 2 2 3 3 3 3 4 5 6 8 10 8 5 3 5 8 12 21 35 37 32 33
8 8 8 7 8 12 15 15 19 23 26 30 31 32 34 36 38 40 41 41 42 45 46 47 46 45 44 44 42 39 35 31 30 31 33 35 37 38 38 39 39 39 38 36 34 32 30 29 27 26 24 22 21 19 18 18 17 15 13 12 10 6 3 2 3 4 4 4 4 4 5 6 6 5 3 4 3 5 5 6 15 21 23 34 44
6 6 5 4 5 10 13 15 19 22 23 26 28 31 34 36 38 40 40 41 42 44 47 47 47 46 45 45 44 39 35 32 31 32 33 35 36 36 37 37 38 39 39 38 35 33 31 30 28 26 24 23 21 20 20 19 17 16 15 13 11 7 4 3 4 5 5 5 6 6 6 5 4 4 6 7 5 5 6 6 11 15 15 25 36
5 5 4 4 5 8 11 13 17 20 22 26 29 31 33 35 37 38 38 40 41 44 47 47 47 47 46 45 44 40 37 36 35 35 36 37 36 35 34 35 36 37 38 39 38 36 33 31 29 27 25 24 22 21 20 18 17 16 15 13 11 7 5 4 5 6 6 6 7 7 8 7 8 9 10 11 9 10 9 6 10 16 13 18 27
5 5 5 6 7 8 9 11 17 21 24 27 29 31 33 34 37 38 39 40 41 43 45 46 47 47 46 44 42 40 38 38 38 37 37 38 37 36 36 37 37 38 40 42 42 39 37 35 33 30 28 26 24 22 20 19 18 17 15 14 11 8 6 5 5 6 7 7 8 8 8 9 9 10 11 13 14 15 13 9 12 15 12 17 25
5 5 6 7 8 9 9 11 16 20 24 27 29 32 33 34 37 38 39 40 42 42 43 45 46 47 45 43 40 38 38 39 39 39 38 39 39 39 41 41 42 44 45 45 45 42 40 38 35 32 30 27 25 23 21 20 19 17 16 13 11 9 7 5 6 6 7 8 9 9 9 9 9 9 12 14 16 17 16 13 13 15 14 16 19
4 6 7 7 8 8 8 11 16 19 23 27 29 31 33 34 37 38 38 40 41 42 43 46 47 45 43 42 40 40 40 40 40 40 39 40 40 41 42 43 45 46 47 46 46 44 42 40 37 35 32 29 26 24 23 22 20 18 16 14 12 10 8 6 6 7 8 9 9 10 10 9 9 10 11 13 15 16 18 18 15 12 11 10 10
5 6 6 6 7 7 8 11 15 18 21 26 29 32 34 35 37 39 40 41 42 43 45 46 45 43 42 43 42 42 41 41 41 41 41 41 42 42 44 44 45 45 45 46 46 45 45 42 40 37 34 31 28 26 25 23 22 20 18 16 14 11 9 8 8 9 9 10 10 10 10 10 10 10 12 14 15 16 17 19 17 12 9 7 7
6 6 6 6 7 7 9 12 15 19 23 27 31 34 36 36 37 38 37 37 41 44 44 43 41 41 43 44 44 44 44 45 44 43 42 41 41 42 43 43 43 44 44 45 45 45 45 44 42 40 36 33 30 28 27 25 23 21 19 17 15 13 12 10 10 10 10 11 11 11 11 11 11 12 13 14 15 16 16 17 17 15 12 8 6
5 6 5 6 7 7 9 13 18 22 25 28 31 32 33 34 36 37 37 38 42 42 42 41 41 42 43 45 46 47 47 47 45 43 41 40 41 42 42 42 42 42 42 43 43 44 44 44 43 41 38 35 33 31 28 26 25 23 20 18 16 15 14 12 12 12 12 13 12 12 12 12 12 13 14 14 14 14 15 15 16 15 14 11 8
6 5 5 6 7 7 9 13 18 22 24 26 27 28 29 32 33 35 38 40 40 38 38 39 41 42 44 46 47 47 47 46 44 41 40 41 43 42 42 42 41 41 41 41 42 42 43 43 42 41 39 37 34 32 30 28 26 24 22 21 19 18 16 14 14 14 14 14 13 13 13 12 13 13 13 13 13 13 13 14 14 13 13 13 12
6 6 6 8 8 9 11 15 18 21 23 23 24 28 32 33 33 34 37 37 37 39 41 42 43 44 44 44 45 46 47 45 43 41 41 42 43 42 42 42 41 41 42 42 42 42 43 43 42 40 39 38 36 34 32 30 28 26 24 23 21 20 17 16 15 15 15 15 15 14 13 13 13 13 13 14 14 15 15 15 16 16 15 14 14
6 7 8 8 8 9 13 16 17 17 19 22 26 30 32 33 35 38 37 36 38 40 42 43 45 46 45 45 45 45 45 43 41 41 42 42 42 41 41 41 41 41 42 42 43 43 43 43 42 41 40 39 38 36 34 32 30 28 26 24 22 21 18 17 16 16 16 16 15 15 14 13 13 13 14 16 17 17 18 18 19 18 18 16 16
7 8 8 8 8 8 9 11 13 15 19 24 27 29 30 33 37 39 37 38 40 42 44 46 46 45 47 47 46 43 42 41 41 41 42 42 41 41 41 41 41 41 42 43 43 43 43 43 43 43 41 40 39 37 35 33 31 30 27 25 23 21 20 18 18 18 17 17 16 15 15 15 15 16 16 17 18 18 18 19 19 19 19 18 15
8 7 8 7 7 6 5 7 11 16 19 22 24 28 31 35 37 36 37 41 44 45 47 46 44 44 46 46 44 42 41 41 42 42 43 43 42 41 41 41 41 41 41 42 43 43 43 43 44 44 42 41 40 38 36 34 32 30 28 26 24 22 20 19 19 19 18 17 17 16 17 17 17 17 17 17 17 17 16 16 17 16 17 17 15
8 7 6 5 5 5 5 6 9 14 18 21 24 28 31 33 34 35 39 44 46 45 44 42 42 44 44 43 42 41 40 41 43 45 45 44 43 42 42 42 42 41 41 42 42 43 43 44 44 44 43 42 40 38 36 34 32 29 27 26 24 22 21 19 19 19 19 19 18 18 18 18 18 17 17 16 15 14 14 13 13 12 12 14 13
10 10 7 5 5 5 6 6 8 12 17 20 24 27 30 33 35 37 41 45 45 43 41 40 42 42 40 40 40 40 41 43 45 45 45 45 43 42 42 42 42 41 41 41 41 42 43 44 45 45 44 43 41 39 37 34 31 29 26 25 23 22 21 20 20 19 19 19 19 19 19 18 18 17 16 16 14 13 12 10 9 9 8 9 10
12 11 9 7 6 6 7 7 7 11 15 19 23 27 30 33 36 39 42 43 42 40 39 39 39 39 38 39 40 40 43 45 46 46 45 44 43 42 42 42 42 41 41 42 42 43 44 44 45 45 44 43 41 39 37 35 32 28 26 24 23 22 21 20 20 19 19 19 19 19 19 18 17 17 16 15 14 12 12 12 11 10 9 9 10
11 9 8 8 7 8 8 8 9 12 16 20 23 26 28 30 34 38 41 41 39 37 38 39 39 39 39 40 41 44 46 47 46 45 44 43 42 42 42 41 41 41 42 42 43 44 44 45 45 44 44 43 41 39 37 34 31 29 27 26 24 23 22 20 20 19 19 19 19 19 18 18 17 17 16 15 14 13 13 13 12 10 11 12 12
9 7 9 9 9 9 9 9 10 13 18 22 24 28 31 32 35 37 37 38 37 35 37 39 39 39 40 42 45 47 47 46 44 42 41 41 41 41 41 41 41 42 43 44 44 44 44 44 44 44 44 42 41 39 37 34 32 29 28 27 25 24 23 21 20 20 19 19 19 18 18 17 16 16 15 14 14 13 13 13 12 11 12 14 14
10 9 10 9 10 11 11 11 12 13 17 21 24 28 30 32 36 37 36 37 36 35 37 38 37 38 42 44 44 43 42 41 40 39 39 40 41 41 40 41 42 42 43 43 44 45 44 44 43 43 42 41 40 39 37 35 33 31 29 27 25 24 23 22 22 20 19 19 18 17 16 15 14 13 13 14 13 13 13 14 14 14 15 17 18
13 11 10 9 11 12 12 13 13 12 15 17 21 26 27 31 35 35 35 37 36 36 37 36 37 42 44 43 39 38 37 38 38 39 40 40 40 40 40 41 41 42 42 43 43 43 44 44 43 42 41 40 40 39 37 35 32 30 29 28 27 26 24 23 22 20 19 18 17 16 13 11 12 13 14 15 15 14 15 16 16 16 17 19 20
17 17 16 14 12 12 13 14 14 14 16 17 20 25 28 30 31 32 35 36 34 35 36 36 40 43 41 37 36 36 37 38 39 39 39 39 39 39 40 40 40 41 41 42 43 43 43 43 43 42 41 41 40 39 36 33 31 30 30 29 28 27 26 24 22 20 20 18 15 14 12 11 13 15 15 15 15 15 15 16 16 17 18 18 20
17 18 18 19 18 15 15 15 15 17 18 19 23 25 25 26 29 33 34 32 30 32 34 37 39 38 34 33 35 36 36 37 37 38 38 38 38 38 39 39 40 40 41 41 42 42 42 41 41 40 41 41 40 38 35 34 32 31 30 29 29 28 26 24 22 21 19 17 14 13 13 13 14 14 14 14 13 14 14 14 16 17 19 20 21
15 17 17 18 17 16 16 16 17 19 23 28 30 26 25 28 31 32 28 26 29 32 33 34 34 32 32 33 34 35 35 36 37 37 37 37 38 39 39 40 40 40 40 40 40 40 40 40 40 41 41 41 40 38 35 32 31 30 30 29 28 27 25 23 21 19 16 15 14 14 15 14 14 13 13 13 13 13 14 14 17 18 20 22 22
14 15 16 16 15 16 18 22 25 27 31 35 34 29 29 32 29 24 23 26 30 31 31 31 30 29 31 32 33 34 35 35 35 36 36 37 39 39 39 39 39 39 39 39 40 40 40 40 41 41 40 40 39 37 33 29 28 28 28 28 26 24 22 20 17 15 14 14 15 16 16 14 13 12 13 13 13 15 16 17 19 21 24 25 25
15 16 16 16 16 16 18 23 29 33 34 33 32 29 29 29 25 21 23 26 28 28 28 28 27 28 30 31 33 34 33 33 34 35 36 37 38 38 37 38 38 39 40 40 40 41 40 40 40 40 39 38 39 36 30 27 27 26 25 25 23 21 19 16 15 14 14 16 16 16 15 14 13 12 12 12 13 15 17 19 22 23 25 24 24
15 16 16 17 17 18 19 23 29 34 33 31 31 29 25 24 21 20 21 23 24 24 24 25 26 27 30 32 33 33 33 33 35 35 36 37 37 37 37 37 37 37 37 38 38 39 40 39 39 39 38 37 37 34 29 26 27 26 24 23 22 21 19 18 17 17 17 18 17 16 15 13 12 11 11 12 13 14 17 19 20 20 21 23 27
16 17 19 22 24 25 26 28 31 33 32 32 33 28 18 13 11 12 14 16 18 20 21 23 25 27 30 32 33 34 34 34 35 36 36 36 36 36 36 36 36 35 35 36 36 36 37 38 38 38 37 36 36 33 27 26 27 26 26 25 23 23 22 21 20 20 20 19 17 15 12 11 11 12 12 12 12 14 16 18 19 21 24 27 29
17 19 22 26 29 29 30 31 30 32 33 32 30 24 14 6 4 6 10 13 15 18 20 22 24 26 28 30 32 33 34 34 36 37 36 36 35 35 35 36 37 36 35 35 35 34 35 37 37 38 36 36 35 31 27 27 27 26 28 28 26 25 24 23 22 21 19 18 15 13 12 12 13 13 12 12 12 13 16 18 20 23 25 25 24
23 22 22 25 29 30 32 31 29 31 35 33 25 18 11 6 4 6 10 13 15 17 18 20 21 23 25 27 29 30 31 32 33 33 33 33 33 33 34 35 35 35 34 34 34 34 34 35 36 36 35 34 35 31 27 27 27 26 28 30 28 26 25 24 22 20 18 16 14 12 12 13 13 12 11 12 12 12 15 18 21 21 21 22 23
26 28 28 28 29 27 28 28 27 30 37 35 26 17 10 6 4 7 10 12 12 13 15 17 19 21 24 26 28 29 30 31 31 30 29 31 32 32 33 34 34 34 34 34 34 35 34 34 34 34 33 34 36 34 30 29 28 27 27 30 29 28 26 25 22 20 19 17 14 13 13 11 11 10 11 11 11 12 15 18 19 19 20 22 25
24 29 30 30 29 27 26 27 28 32 37 37 29 22 17 12 7 8 11 10 9 10 12 14 17 19 22 25 27 29 30 30 30 30 30 31 32 33 35 36 34 33 33 33 34 34 33 33 33 34 33 34 36 37 33 29 28 27 27 28 30 29 27 25 22 19 18 16 14 14 13 11 9 10 11 11 11 13 15 17 19 19 20 22 23
24 26 27 27 27 28 29 30 32 34 36 37 29 23 22 18 12 13 15 11 8 8 10 12 15 18 21 24 26 27 28 29 29 31 31 31 32 33 35 35 33 32 32 32 32 32 32 31 31 32 33 34 36 37 34 29 27 28 27 27 29 29 26 23 22 20 18 16 14 15 13 10 9 9 10 11 12 13 14 16 17 18 19 20 20
23 25 27 27 24 25 28 31 33 34 37 37 29 21 21 18 15 17 16 9 7 7 8 11 14 17 20 23 24 25 27 28 29 31 31 31 30 31 33 34 33 32 31 30 30 31 31 30 31 31 32 33 34 35 35 30 27 27 26 25 26 26 24 22 22 21 19 17 14 13 11 9 8 9 10 11 12 13 13 14 15 16 17 17 18
20 24 28 28 24 24 28 32 33 33 34 35 29 22 19 17 18 20 17 10 8 7 7 10 13 16 19 22 24 25 27 28 29 31 30 29 30 31 32 32 32 32 30 28 28 30 29 30 33 32 31 32 32 32 34 32 28 27 27 26 25 24 23 22 21 20 17 15 13 10 8 6 7 7 8 8 10 11 11 12 13 14 14 14 16
22 24 27 27 25 26 28 30 32 32 31 32 30 23 19 19 21 21 17 13 10 8 9 10 13 15 18 20 22 24 27 29 31 33 32 31 31 31 30 30 31 31 30 28 28 28 28 29 30 29 29 31 32 31 32 31 28 26 26 26 24 24 23 22 21 18 15 13 11 8 7 6 6 7 7 10 12 12 11 10 11 11 11 12 14
20 23 26 27 27 27 26 26 31 33 31 30 30 24 21 23 25 21 17 15 12 10 11 12 14 16 18 21 22 23 26 28 30 33 33 33 34 33 31 30 30 30 30 28 28 28 27 27 27 27 28 30 30 30 31 30 28 26 26 25 24 23 21 20 18 16 14 12 10 10 9 9 9 9 10 11 12 11 9 8 8 8 9 10 13
19 22 26 26 23 22 23 25 29 33 32 30 31 28 26 28 29 24 19 16 13 13 13 14 16 17 19 22 24 24 25 27 29 31 31 31 33 33 31 30 30 29 28 27 27 27 26 26 25 25 27 28 29 30 30 31 31 29 28 27 26 24 22 19 18 17 16 14 12 11 10 9 9 9 8 8 9 8 6 5 5 6 7 10 12
22 24 25 24 21 20 22 24 28 32 33 32 33 32 29 28 29 27 21 17 16 16 17 18 19 19 21 24 25 26 28 29 30 31 31 32 34 35 34 35 37 37 34 31 30 30 30 31 30 29 28 27 27 30 33 35 36 35 33 31 29 27 25 23 21 19 17 14 11 9 8 8 7 7 6 6 6 4 3 3 4 6 7 9 12
22 23 24 23 22 22 23 25 29 32 34 32 32 31 29 27 27 27 22 19 19 19 19 20 20 21 23 24 25 26 28 30 30 29 30 31 33 35 35 35 38 41 41 39 37 36 36 36 35 34 33 29 27 32 37 39 39 38 36 35 32 30 27 24 21 19 16 14 11 9 8 8 7 6 6 4 3 1 1 3 4 6 8 10 13
23 24 26 24 22 23 24 26 30 32 31 31 32 33 32 29 28 26 23 22 22 20 19 21 22 23 24 25 25 25 26 28 28 27 26 26 27 30 30 28 30 34 36 36 35 37 38 37 36 37 38 36 37 40 40 37 34 32 32 31 30 28 25 22 20 18 16 15 13 11 10 9 8 6 5 4 2 1 2 3 5 7 9 11 14
23 23 23 23 24 26 27 29 31 31 30 30 34 38 37 33 30 28 26 25 25 22 19 20 22 24 26 27 26 25 26 26 26 25 24 23 22 24 24 23 23 26 28 27 27 30 35 37 38 38 35 31 32 36 36 33 32 30 29 27 26 25 23 22 22 21 18 15 14 13 11 10 8 7 5 4 3 2 3 4 6 8 10 12 15
Wind_Direction
258 257 252 243 234 228 224 221 219 219 218 214 210 208 207 203 199 197 197 195 193 193 194 194 194 194 196 201 205 207 208 209 212 214 214 215 213 212 212 208 204 203 202 201 200 199 197 195 194 194 192 191 187 180 172 170 170 177 183 194 249 313 358 342 345 345 343 342 337 335 343 352 350 285 160 92 349 336 57 17 359 2 4 1 356
267 264 250 234 230 223 218 215 211 211 212 210 209 208 206 201 199 197 194 193 194 194 194 195 197 198 198 202 204 205 206 208 210 212 214 215 214 214 213 210 206 204 203 202 201 200 198 197 197 197 195 192 186 180 178 177 178 183 190 207 245 300 24 12 358 0 2 345 332 325 340 357 1 208 177 325 341 344 100 351 351 13 6 357 350
265 265 256 226 219 216 211 209 208 210 211 208 209 206 201 199 198 196 194 194 195 195 196 198 200 201 201 202 203 203 206 209 211 213 213 214 214 214 214 212 207 206 205 203 203 202 201 201 200 198 197 194 190 186 183 183 186 187 191 212 234 353 44 42 12 16 7 345 334 315 342 2 353 28 239 316 331 142 341 342 354 0 351 341 338
258 261 262 227 208 209 204 206 207 209 208 205 204 201 198 199 198 195 195 194 194 196 197 198 198 198 200 202 202 203 206 208 210 213 213 213 213 214 215 213 209 208 207 206 205 203 202 203 201 199 198 197 196 193 190 189 191 192 195 208 215 137 82 82 30 21 11 3 7 302 312 60 339 341 316 317 302 244 329 341 350 343 339 335 338
256 259 260 227 202 207 204 207 206 204 204 203 201 199 199 199 197 195 195 194 194 195 195 195 193 192 193 195 197 200 203 204 206 211 211 211 213 213 214 213 210 209 208 207 206 204 203 202 202 201 198 197 197 196 195 192 192 195 199 209 218 197 103 109 91 26 12 16 35 313 321 346 267 312 324 310 266 303 320 336 341 341 342 340 340
257 259 261 237 208 208 206 206 203 202 205 205 202 200 199 197 195 194 193 193 193 193 192 192 191 190 189 187 189 193 197 202 206 208 207 208 211 212 213 213 212 210 208 208 207 205 204 202 202 201 199 198 198 196 194 193 194 196 196 205 221 254 5 65 128 11 6 348 322 160 202 260 292 325 336 295 297 308 310 329 337 345 349 340 334
256 257 256 239 213 200 205 205 202 204 207 204 201 198 197 194 193 192 192 192 192 192 191 191 191 191 192 193 195 196 200 207 210 209 208 208 210 211 212 213 212 210 209 208 207 206 204 203 202 201 201 199 198 196 195 195 195 194 196 203 215 227 345 3 294 302 347 180 214 195 226 275 308 329 341 313 318 308 301 322 333 344 340 333 331
253 255 249 234 215 201 208 208 204 205 204 198 196 195 195 193 192 191 191 191 192 192 192 193 193 194 196 198 201 203 207 211 212 210 211 210 209 211 213 213 213 212 212 210 208 207 205 204 202 201 200 199 199 199 197 195 192 194 198 201 207 209 293 326 293 293 298 202 219 250 273 292 306 314 310 301 312 302 310 322 327 326 327 330 332
241 245 245 228 214 211 214 210 203 203 199 194 195 194 193 191 190 190 190 191 192 192 194 195 197 198 199 200 204 208 211 213 212 210 211 210 210 211 212 212 212 212 213 212 210 208 206 205 204 202 200 199 200 199 196 196 195 198 201 201 206 201 208 280 282 277 272 252 262 287 296 302 309 314 315 301 267 277 307 322 322 324 327 326 326
240 238 247 225 216 215 209 201 197 198 197 195 193 191 189 189 188 189 191 192 192 194 195 197 199 200 201 202 205 208 209 210 211 210 209 210 210 210 211 211 211 211 212 213 212 210 207 207 206 205 203 201 201 198 196 197 196 199 202 204 208 202 200 239 258 256 250 248 256 271 283 300 316 320 331 336 303 268 271 290 306 317 322 317 319
249 232 234 205 200 200 193 189 190 193 193 191 190 189 188 188 188 189 191 192 193 195 197 199 200 201 204 206 207 207 205 206 207 207 207 208 209 210 210 210 211 211 211 212 212 211 209 209 209 208 206 204 203 201 199 198 197 197 200 203 206 202 201 217 235 240 236 238 242 248 256 265 271 260 275 300 295 264 275 285 289 295 292 296 308
244 210 190 158 161 180 184 182 181 184 187 188 188 187 187 188 188 190 192 193 195 196 198 200 201 204 207 208 209 208 206 206 207 207 208 208 209 209 209 210 211 211 211 211 211 210 209 209 209 209 208 207 206 204 202 200 197 197 199 203 206 203 202 215 225 225 226 231 234 241 249 255 261 266 279 289 288 286 290 285 290 300 291 279 293
215 195 181 179 183 183 184 180 179 184 187 186 186 186 188 189 190 191 193 195 196 198 200 202 204 207 208 209 210 209 209 210 211 211 211 211 210 209 208 209 209 210 211 211 211 209 208 209 208 208 208 208 207 205 203 200 199 200 201 204 207 207 211 219 220 218 222 226 229 236 242 252 263 271 282 291 298 303 303 297 297 302 294 288 295
208 201 197 198 196 190 188 187 185 187 187 186 186 187 188 190 192 194 196 197 198 200 202 204 207 209 210 211 212 211 211 213 214 214 214 213 212 211 211 210 210 211 211 212 212 210 208 209 209 208 208 208 207 204 203 202 201 202 203 206 209 210 213 217 216 216 218 222 229 234 240 251 259 269 281 291 302 308 308 309 309 306 294 290 297
235 221 216 210 201 194 192 193 192 190 187 187 188 189 190 192 194 196 197 198 199 202 204 206 209 211 211 213 213 214 215 216 217 217 216 215 214 214 214 213 213 214 213 213 213 211 209 208 208 208 208 207 205 204 203 202 202 202 202 205 208 209 211 213 214 216 220 224 228 233 240 249 256 268 281 288 296 301 303 307 312 315 304 295 298
246 235 232 220 203 195 197 197 196 192 189 190 191 192 193 195 196 198 200 200 201 203 206 208 210 210 212 214 215 215 216 217 218 218 218 218 217 217 217 216 216 215 215 214 213 211 210 208 207 207 206 205 204 203 203 202 202 201 201 204 206 208 210 211 211 215 220 223 225 231 240 248 257 269 278 284 289 290 294 298 302 307 308 310 310
248 246 239 222 207 203 202 199 196 194 195 197 197 197 197 197 198 200 201 202 204 207 208 209 210 211 213 214 215 216 217 218 219 219 219 218 219 219 219 219 217 216 215 214 213 212 210 209 207 206 204 203 203 203 203 203 202 201 202 205 207 207 208 207 209 213 217 220 223 228 237 248 258 267 273 279 283 283 285 286 288 292 292 299 309
258 260 259 246 227 215 205 204 203 201 201 203 203 202 202 202 202 201 202 205 208 209 209 210 210 212 214 215 216 217 218 220 220 220 219 218 219 220 219 219 218 217 215 214 213 211 209 208 207 205 203 202 202 202 202 202 202 202 203 206 206 206 206 205 207 212 215 219 223 229 238 248 256 264 271 275 275 275 278 279 280 282 280 279 284
273 256 254 250 236 228 215 210 210 209 209 208 206 205 207 209 209 207 208 209 210 210 211 213 213 214 216 217 218 218 219 220 220 220 219 219 220 219 218 219 218 216 215 214 213 211 209 208 207 205 202 200 201 201 200 200 201 202 203 203 203 204 205 205 207 211 215 219 223 230 239 246 254 262 265 267 267 266 266 268 270 271 272 274 279
279 260 248 240 231 230 222 217 214 212 213 211 207 207 209 211 212 213 214 213 212 212 213 214 215 217 218 219 219 220 220 221 220 219 219 220 221 220 219 219 217 216 215 214 214 213 210 208 206 205 203 200 200 200 200 200 201 202 203 202 201 202 204 205 206 210 214 219 223 228 237 243 250 256 258 259 259 259 260 262 264 266 267 271 280
257 253 249 243 239 236 229 224 219 214 214 212 210 210 210 211 213 215 216 214 214 215 214 215 217 217 219 220 221 221 220 220 220 219 220 221 221 221 220 218 217 217 215 214 214 213 211 208 206 205 204 202 201 200 200 201 201 201 202 202 201 201 202 202 205 208 212 217 222 227 234 240 245 249 252 255 256 257 260 262 263 266 267 268 274
236 234 237 238 237 238 234 228 218 212 214 213 212 211 210 212 216 217 216 216 216 216 216 217 217 217 218 219 220 221 219 219 219 220 221 221 221 221 220 218 217 217 215 214 213 212 210 208 206 205 204 204 203 202 201 201 201 200 199 200 200 200 200 200 203 206 210 215 222 227 232 237 242 246 248 251 254 257 260 263 264 264 266 265 264
243 235 234 235 233 230 222 221 219 219 219 215 213 212 213 216 217 217 218 220 220 220 219 218 217 218 219 219 219 219 218 217 218 219 220 221 221 220 219 218 217 216 214 213 212 211 208 206 205 204 204 204 203 203 202 202 201 201 199 199 199 200 200 200 202 206 210 215 220 225 231 235 238 241 244 248 251 255 257 261 262 259 260 262 257
261 254 250 253 250 233 209 211 219 225 225 221 217 216 217 220 219 218 221 223 223 222 221 218 217 219 219 218 218 217 216 216 217 218 219 219 219 219 218 218 216 215 213 212 211 210 207 205 203 203 203 203 203 203 203 203 203 202 201 200 198 199 200 202 205 208 211 216 221 224 228 233 236 238 241 244 245 249 252 250 251 251 251 259 261
272 268 273 270 251 240 230 224 217 220 224 226 225 222 220 221 221 221 224 226 225 222 221 219 218 219 218 217 217 215 215 216 217 218 218 218 217 216 216 215 213 212 211 209 208 207 206 204 203 203 203 203 203 203 203 203 202 202 201 200 199 199 201 203 207 210 213 218 222 226 229 231 233 234 236 239 239 240 242 236 238 246 244 255 267
271 275 286 283 264 248 243 241 231 228 229 230 231 229 226 224 224 224 226 228 226 222 220 219 218 218 217 217 216 214 215 217 217 217 217 216 215 213 213 212 210 209 208 206 205 205 205 204 204 204 203 203 204 203 203 202 200 199 199 199 199 200 202 204 207 211 216 221 224 227 230 231 231 232 234 236 237 233 232 234 235 242 250 260 267
267 283 293 285 272 255 245 243 243 245 244 240 236 235 233 232 231 230 229 228 226 221 219 218 217 217 217 216 215 215 217 218 217 216 215 213 212 211 210 209 208 207 205 204 203 203 204 205 204 204 204 204 203 201 201 200 198 198 198 198 199 200 202 204 208 213 217 223 228 229 231 232 231 234 236 235 234 230 230 236 239 244 256 263 264
274 283 277 267 258 253 247 243 244 245 245 242 238 236 236 237 238 238 233 228 224 219 217 217 216 216 217 217 217 218 218 217 216 215 213 210 209 208 207 206 205 204 203 203 202 202 203 203 204 205 205 204 202 199 199 198 198 198 198 198 198 199 201 204 207 215 219 223 228 229 230 233 234 237 239 236 233 232 233 237 241 250 258 261 262
281 268 260 251 248 251 249 245 243 239 241 241 238 237 236 236 240 240 235 230 224 217 216 216 215 217 219 219 219 218 217 216 214 212 210 208 207 205 204 204 203 202 203 203 202 202 201 201 202 203 203 201 200 200 200 199 198 197 197 197 198 199 202 204 207 212 218 222 226 228 229 234 238 237 232 230 231 233 238 243 249 256 258 258 258
319 306 291 273 260 258 258 256 252 245 242 241 238 238 238 237 240 239 235 231 223 215 215 214 214 218 220 219 217 215 213 212 210 209 208 205 203 202 201 201 201 201 200 200 200 200 200 200 200 200 199 199 199 200 201 200 199 199 197 196 197 199 201 204 206 209 214 219 222 226 230 233 232 228 224 226 231 234 240 250 258 262 259 255 253
351 344 337 328 308 287 274 269 264 259 252 243 241 244 243 241 240 239 236 232 222 215 215 214 216 219 219 215 212 210 208 208 207 206 204 202 200 199 198 198 198 197 198 198 197 197 198 199 199 198 198 198 199 201 200 199 199 200 200 197 196 198 199 202 205 206 209 214 218 222 227 224 220 221 224 226 231 236 242 250 255 258 259 256 253
356 353 352 349 341 327 308 290 276 271 268 262 257 252 246 242 242 241 238 231 221 217 216 216 218 219 215 210 207 205 203 203 203 202 201 199 198 197 196 196 195 195 195 195 195 195 196 197 197 197 198 198 200 201 199 198 198 199 200 199 197 196 197 199 202 205 209 211 213 215 218 221 220 221 224 227 231 237 242 248 254 258 259 260 261
352 349 349 349 348 344 332 318 302 290 284 280 275 265 252 248 247 243 237 226 219 218 218 218 219 215 210 207 204 200 200 200 199 198 197 195 195 195 195 195 194 193 193 193 193 194 194 195 196 197 198 200 201 199 196 195 195 196 198 198 197 197 197 198 200 204 208 209 209 210 211 218 224 222 223 229 234 241 247 253 258 260 261 261 264
348 345 345 343 342 342 338 335 329 316 303 294 290 283 270 262 255 242 230 221 217 216 216 218 216 212 208 204 200 198 197 197 196 194 193 193 193 194 194 193 192 191 191 192 192 193 194 195 196 197 198 200 200 197 193 190 189 191 196 196 195 194 195 197 199 203 210 212 212 212 212 219 228 231 231 235 242 251 257 261 264 265 265 264 263
343 340 338 336 337 337 336 336 335 330 322 310 302 297 286 275 262 242 227 219 213 212 214 214 212 208 205 201 198 196 194 193 192 191 191 191 192 192 191 191 191 191 192 193 192 193 194 194 196 196 196 199 199 194 189 186 184 184 189 191 191 190 193 197 201 206 212 213 212 215 222 232 239 243 246 248 255 262 264 265 267 266 267 268 267
337 335 332 330 329 329 329 330 332 334 333 326 316 309 295 278 263 242 226 215 209 209 210 209 206 204 202 199 196 193 191 190 189 188 189 190 190 190 190 189 190 191 192 193 193 193 193 193 194 195 195 197 197 191 185 185 183 179 181 187 190 192 193 195 199 204 209 212 217 225 235 242 244 249 257 256 257 265 268 269 271 271 273 275 273
330 328 326 325 325 327 328 329 331 333 335 334 331 325 307 278 259 238 223 212 204 206 207 205 204 203 201 199 196 192 189 188 187 187 189 190 189 189 189 187 187 188 190 191 192 192 192 192 192 193 195 196 193 187 183 184 182 178 181 186 189 189 190 193 199 205 210 217 227 234 235 239 248 258 262 259 258 266 272 275 279 281 278 275 274
328 327 327 327 327 328 328 329 331 331 333 337 337 334 330 318 274 229 214 205 202 207 208 205 205 204 201 198 196 193 190 188 187 188 189 188 188 187 187 187 187 188 189 190 190 190 191 193 193 193 195 195 190 185 183 184 181 180 183 187 188 187 189 194 199 204 214 223 228 230 232 241 253 258 258 258 262 268 273 278 279 278 276 275 279
325 324 324 324 324 325 327 330 331 330 331 334 334 331 336 334 285 231 209 207 211 212 208 206 206 204 201 198 196 194 192 189 189 190 188 186 185 185 186 187 187 188 188 188 188 188 189 191 193 193 194 194 189 183 183 185 181 181 187 191 189 187 188 193 197 202 213 221 222 224 230 237 244 252 257 262 265 266 271 277 278 278 280 282 287
323 323 322 322 322 324 327 329 328 327 328 329 327 322 319 308 267 235 225 226 227 220 212 210 207 203 200 198 196 195 194 192 190 189 187 185 184 184 183 185 186 187 186 186 187 188 188 189 191 192 193 194 190 183 183 186 182 182 190 193 191 189 189 190 193 199 205 211 218 224 225 228 238 252 260 261 263 265 271 279 282 283 285 286 289
316 318 320 322 321 322 324 322 322 326 327 327 324 317 312 313 303 274 269 266 252 231 219 212 206 201 199 197 196 196 195 194 191 187 184 184 185 184 183 183 184 184 183 183 184 186 186 187 189 190 192 194 191 187 185 185 183 184 190 195 194 193 191 189 190 195 201 205 210 214 217 226 241 253 258 258 264 270 276 282 284 282 283 286 291
316 317 319 321 320 321 323 321 323 326 326 325 323 313 311 317 312 302 303 300 276 245 223 208 201 198 197 195 196 197 196 193 191 186 183 182 183 184 184 182 182 182 181 181 182 182 182 183 184 188 191 192 192 191 188 185 183 184 188 194 197 195 192 190 189 194 199 197 198 208 221 235 241 247 255 261 269 277 281 282 281 281 284 290 295
318 319 322 324 321 320 321 320 321 323 323 323 320 309 309 313 306 307 316 311 278 256 225 208 200 195 195 195 195 196 195 192 189 186 183 181 181 182 182 181 181 180 178 179 180 179 179 179 180 184 190 191 191 192 190 185 183 185 186 191 195 192 189 189 189 191 193 191 197 213 228 233 236 246 259 268 276 283 283 280 281 285 291 295 297
315 317 321 324 322 319 319 317 317 319 320 321 318 308 304 305 301 305 309 300 279 259 223 212 203 195 195 195 194 194 194 191 188 185 182 180 179 180 180 181 181 179 178 178 180 180 179 179 180 182 186 189 189 189 189 187 183 184 186 188 188 185 185 189 189 188 189 193 205 220 225 222 232 248 265 275 278 279 280 280 284 292 298 299 299
314 316 321 323 320 317 316 314 315 318 320 320 318 310 300 299 303 305 301 292 280 255 228 217 207 200 198 195 193 193 193 191 189 186 183 181 180 179 180 182 182 182 181 181 181 183 184 182 181 180 182 186 186 185 186 185 182 183 186 186 185 182 181 184 186 187 191 196 202 206 201 206 228 246 260 268 269 270 277 284 289 295 299 302 304
312 315 319 321 319 318 317 315 315 316 318 318 317 310 299 299 304 304 295 286 272 248 234 222 209 204 200 195 192 192 192 192 190 188 188 186 183 182 183 184 185 186 186 185 184 186 187 185 184 183 180 181 183 181 180 180 179 180 184 185 184 181 178 178 180 182 181 178 180 187 197 212 235 253 262 265 266 268 271 276 286 299 304 309 311
309 313 317 319 319 317 316 314 311 311 314 315 313 308 303 303 304 300 289 277 261 241 232 223 213 206 200 196 194 192 191 192 191 190 190 189 188 188 186 186 188 189 190 190 188 187 187 186 185 183 178 177 179 179 177 177 177 178 181 182 181 178 175 172 171 170 172 174 180 191 210 230 246 253 253 252 251 254 262 274 297 315 314 314 313
306 311 315 317 316 312 311 310 306 307 311 311 307 305 305 305 304 297 284 268 252 238 229 223 216 209 203 200 198 195 193 193 194 194 193 192 192 192 192 194 195 192 190 191 190 190 191 189 183 178 175 174 178 182 181 179 178 178 179 179 176 173 172 172 171 172 175 179 187 197 213 230 237 232 226 224 224 232 267 300 315 325 322 320 317
305 310 312 311 308 305 306 304 300 302 306 304 302 303 307 309 307 299 283 262 251 240 227 220 214 208 205 203 201 200 197 196 196 199 200 200 198 198 200 204 204 200 197 195 194 194 194 190 184 180 176 174 180 187 186 183 180 178 177 175 172 172 173 173 174 177 177 175 181 196 205 206 204 198 192 189 192 222 286 299 313 328 329 322 316
306 311 310 307 304 304 303 298 295 297 300 300 300 302 303 306 308 302 285 265 253 240 227 218 211 206 205 202 200 201 200 198 198 201 203 206 208 207 208 213 214 211 208 204 201 199 196 190 186 185 183 184 188 189 186 181 178 176 175 172 170 170 170 167 167 172 174 173 177 186 188 185 180 174 173 175 180 234 286 312 334 339 332 322 316
305 307 306 306 305 304 301 295 294 296 297 297 298 297 295 296 300 298 287 269 254 240 229 220 213 209 207 203 200 201 200 199 201 201 200 203 207 211 215 220 220 217 214 211 209 205 198 192 189 187 187 189 189 183 176 172 172 172 171 168 165 165 164 161 163 168 170 171 176 177 174 172 172 168 170 180 188 213 284 318 332 331 327 322 316